Location: Pcim
(49.7500°N, 19.9670°E)
Time: 19:48:10
(UTC+02:00)

MOZHAYETS 4 - Pass Details

Date: 25 April 2024
Orbit: 652 x 670 km, 98.3° (Epoch: 20 May)

Event Time Altitude Azimuth Distance (km) Brightness Sun altitude
Rises 04:34:30 0° 190° (S) 3,006 10.7 -8.5°
Reaches altitude 10° 04:36:54 10° 200° (SSW) 2,098 9.8 -8.1°
Maximum altitude 04:41:02 33° 264° (W) 1,139 8.5 -7.6°
Drops below altitude 10° 04:45:12 10° 328° (NNW) 2,112 10.3 -7.0°
Sets 04:47:38 0° 338° (NNW) 3,030 11.2 -6.6°
